Overview Statistics Trail Chart Weather Telemetry Raw packets
 

This is the latest recevied telemetry packets stored in our database for station/object DL3RBW-2. If no packets are shown the sender has not sent any telemetry packets the latest 10 day(s).

Telemetry packets is used to share measurements like repeteater parameters, battery voltage, radiation readings (or any other measurements).

<< 1 2 3 4 >>
Time Press* Temp.in* Hum* QNH* Temp.out*
1788590950 1011.7 hPa 29.2 C deg 33.5 % 1014 hPa 0 C deg
1788588706 1011.4 hPa 28.8 C deg 33.9 % 1013.7 hPa 0 C deg
1788588706 1011.4 hPa 28.8 C deg 33.9 % 1013.7 hPa 0 C deg
1788586836 1011.1 hPa 28.5 C deg 34.4 % 1013.4 hPa 0 C deg
1788586836 1011.1 hPa 28.5 C deg 34.4 % 1013.4 hPa 0 C deg
1788584935 1011 hPa 27.9 C deg 35.5 % 1013.3 hPa 0 C deg
1788581726 1010.4 hPa 24 C deg 41.4 % 1012.7 hPa 0 C deg
1788581726 1010.4 hPa 24 C deg 41.4 % 1012.7 hPa 0 C deg
1788579677 1010.3 hPa 22.5 C deg 42.8 % 1012.6 hPa 0 C deg
1788579677 1010.3 hPa 22.5 C deg 42.8 % 1012.6 hPa 0 C deg
1788577878 1010.1 hPa 22.9 C deg 43 % 1012.4 hPa 0 C deg
1788577878 1010.1 hPa 22.9 C deg 43 % 1012.4 hPa 0 C deg
1788574899 1010 hPa 23.7 C deg 44.1 % 1012.3 hPa 0 C deg
1788574892 1010 hPa 23.7 C deg 44.1 % 1012.3 hPa 0 C deg
1788571467 1009.7 hPa 23.8 C deg 44 % 1012 hPa 0 C deg
1788567939 1009.5 hPa 23.9 C deg 44 % 1011.9 hPa 0 C deg
1788566073 1009.4 hPa 24 C deg 44.1 % 1011.7 hPa 0 C deg
1788564060 1009.3 hPa 24 C deg 44 % 1011.6 hPa 0 C deg
1788562229 1009.1 hPa 24 C deg 44.1 % 1011.4 hPa 0 C deg
1788559222 1008.6 hPa 24.2 C deg 44.1 % 1010.9 hPa 0 C deg
1788555671 1008.1 hPa 24.2 C deg 44.3 % 1010.4 hPa 0 C deg
1788553871 1007.9 hPa 24.3 C deg 44.3 % 1010.2 hPa 0 C deg
1788552026 1007.7 hPa 24.3 C deg 44.4 % 1010 hPa 0 C deg
1788548825 1006.8 hPa 24.3 C deg 44.5 % 1009.1 hPa 0 C deg
1788547870 1006.8 hPa 24.3 C deg 44.5 % 1009.1 hPa 0 C deg
*Used Equation Coefficients:
Press: 0, 1, 0
Temp.in: 0, 1, 0
Hum: 0, 1, 0
QNH: 0, 1, 0
Temp.out: 0, 1, 0

  • The parameter names for the analog channels will be Value1, Value2, Value3 (up to Value5) if station has not sent a PARAM-packet that specifies the parameter names for each analog channel.
  • Each analog value is a decimal number between 000 and 255 (according to APRS specifications). The receiver use the telemetry equation coefficientsto to restore the original sensor values. If no EQNS-packet with equation coefficients is sent we will show the values as is (this corresponds to the equation coefficients a=0, b=1 and c=0).
    The sent equation coefficients is used in the equation: a * value2 + b * value + c.
  • The units for the analog values will not be shown if station has not sent a UNIT-packet specifying what unit's to use.
  • The parameter names for the digital bits will be Bit1, Bit2, Bit3 (up to Bit8) if station has not sent a PARAM-packet that specifies the parameter names for each digital bit.
  • All bit labels will be named "On" if station has not sent a UNIT-packet that specifies the label of each bit.
  • A bit is considered to be On when the bit is 1 if station has not sent a BITS-packet that specifies another "Bit sense" (a BITS-packet specify the state of the bits that match the BIT labels)